Location: Marcé
(47.5801°N, 0.3280°W)
Time: 19:30:36
(UTC+01:00)

Vanguard 1 - Pass Details

Date: 05 December 2021
Orbit: 652 x 3830 km, 34.2° (Epoch: 16 January)

Event Time Altitude Azimuth Distance (km) Brightness Sun altitude
Rises 21:29:55 0° 184° (S) 6,482 14.2 -42.7°
Reaches altitude 10° 21:35:44 10° 170° (S) 5,964 13.8 -43.6°
Enters shadow 21:35:58 10° 169° (S) 5,950 13.8 -43.7°
Maximum altitude 21:48:11 21° 130° (SE) 5,806 - -45.7°
Drops below altitude 10° 22:02:21 10° 92° (E) 6,932 - -47.9°
Sets 22:09:49 0° 79° (E) 7,831 - -49.1°
